Hourly Weather Rudkovschina

Today, 18 April, Sunday

Time Temperature Precipitation Wind Pressure Humidity
00:00 +8°C° 0 mm 5 mps 744 mmHg 88%
01:00 +8°C° 0 mm 5 mps 744 mmHg 87%
02:00 +7°C° 0 mm 5 mps 744 mmHg 87%
03:00 +6°C° 0 mm 5 mps 744 mmHg 87%
04:00 +6°C° 0 mm 5 mps 744 mmHg 87%
05:00 +5°C° 0 mm 5 mps 744 mmHg 88%
06:00 +6°C° 0 mm 5 mps 745 mmHg 83%
07:00 +5°C° 0 mm 6 mps 745 mmHg 79%
08:00 +7°C° 0 mm 6 mps 745 mmHg 74%
09:00 +8°C° 0 mm 6 mps 745 mmHg 72%
10:00 +9°C° 0 mm 6 mps 745 mmHg 70%
11:00 +9°C° 0 mm 6 mps 745 mmHg 68%
12:00 +9°C° 0 mm 6 mps 746 mmHg 71%
13:00 +8°C° 0 mm 5 mps 746 mmHg 73%
14:00 +8°C° 0 mm 4 mps 747 mmHg 76%
15:00 +8°C° 0 mm 4 mps 747 mmHg 77%
16:00 +7°C° 0 mm 4 mps 747 mmHg 78%
17:00 +7°C° 0 mm 4 mps 747 mmHg 80%
18:00 +6°C° 0 mm 4 mps 747 mmHg 82%
19:00 +7°C° 0 mm 3 mps 747 mmHg 85%
20:00 +6°C° 0 mm 2 mps 747 mmHg 87%
21:00 +5°C° 0 mm 3 mps 747 mmHg 88%
22:00 +4°C° 0 mm 3 mps 747 mmHg 89%
23:00 +4°C° 0 mm 3 mps 747 mmHg 90%

Tomorrow, 19 April, Monday

Time Temperature Precipitation Wind Pressure Humidity
00:00 +4°C° 0 mm 3 mps 747 mmHg 90%
01:00 +4°C° 0 mm 3 mps 747 mmHg 90%
02:00 +4°C° 0 mm 3 mps 747 mmHg 89%
03:00 +4°C° 0 mm 3 mps 747 mmHg 89%
04:00 +4°C° 0 mm 3 mps 747 mmHg 89%
05:00 +4°C° 0 mm 3 mps 747 mmHg 88%
06:00 +4°C° 0 mm 3 mps 748 mmHg 87%
07:00 +5°C° 0 mm 3 mps 748 mmHg 86%
08:00 +5°C° 0 mm 3 mps 748 mmHg 85%
09:00 +6°C° 0 mm 4 mps 748 mmHg 83%
10:00 +6°C° 0 mm 4 mps 748 mmHg 81%
11:00 +7°C° 0 mm 5 mps 748 mmHg 79%
12:00 +7°C° 0.1 mm 5 mps 748 mmHg 77%
13:00 +8°C° 0.1 mm 5 mps 747 mmHg 75%
14:00 +8°C° 0.1 mm 6 mps 747 mmHg 73%
15:00 +8°C° 0.1 mm 6 mps 747 mmHg 76%
16:00 +7°C° 0.1 mm 6 mps 747 mmHg 79%
17:00 +7°C° 0.1 mm 5 mps 747 mmHg 82%
18:00 +6°C° 0 mm 5 mps 747 mmHg 84%
19:00 +5°C° 0 mm 5 mps 747 mmHg 87%
20:00 +5°C° 0 mm 5 mps 747 mmHg 89%
21:00 +4°C° 0 mm 4 mps 747 mmHg 89%
22:00 +4°C° 0 mm 4 mps 747 mmHg 88%
23:00 +4°C° 0 mm 3 mps 747 mmHg 87%

Day after tomorrow, 20 April, Tuesday

Time Temperature Precipitation Wind Pressure Humidity
00:00 +4°C° 0.1 mm 3 mps 746 mmHg 88%
01:00 +3°C° 0.1 mm 4 mps 746 mmHg 90%
02:00 +3°C° 0.1 mm 4 mps 746 mmHg 91%
03:00 +3°C° 0.1 mm 4 mps 745 mmHg 92%
04:00 +1°C° 0.1 mm 4 mps 745 mmHg 94%
05:00 +1°C° 0.1 mm 4 mps 744 mmHg 96%
06:00 +1°C° 0.1 mm 4 mps 744 mmHg 96%
07:00 +1°C° 0.1 mm 4 mps 744 mmHg 97%
08:00 +1°C° 0.1 mm 4 mps 744 mmHg 97%
09:00 +1°C° 0.2 mm 4 mps 744 mmHg 97%
10:00 +1°C° 0.2 mm 4 mps 744 mmHg 97%
11:00 +1°C° 0.2 mm 4 mps 743 mmHg 97%
12:00 +1°C° 0 mm 4 mps 743 mmHg 97%
13:00 +1°C° 0 mm 4 mps 743 mmHg 96%
14:00 +3°C° 0 mm 4 mps 742 mmHg 96%
15:00 +3°C° 0 mm 4 mps 742 mmHg 96%
16:00 +3°C° 0 mm 4 mps 741 mmHg 96%
17:00 +3°C° 0 mm 4 mps 741 mmHg 96%
18:00 +3°C° 0.3 mm 4 mps 740 mmHg 96%
19:00 +2°C° 0.3 mm 5 mps 740 mmHg 96%
20:00 +2°C° 0.3 mm 5 mps 739 mmHg 96%
21:00 +2°C° 0.8 mm 5 mps 739 mmHg 96%
22:00 +2°C° 0.8 mm 5 mps 738 mmHg 96%
23:00 +2°C° 0.8 mm 5 mps 737 mmHg 96%

21 April, Wednesday

Time Temperature Precipitation Wind Pressure Humidity
00:00 +2°C° 0.7 mm 6 mps 736 mmHg 96%
01:00 +1°C° 0.7 mm 6 mps 736 mmHg 96%
02:00 +1°C° 0.7 mm 6 mps 735 mmHg 97%
03:00 +1°C° 1 mm 6 mps 735 mmHg 97%
04:00 +1°C° 1 mm 6 mps 734 mmHg 97%
05:00 -1°C° 1 mm 6 mps 734 mmHg 97%
06:00 -1°C° 0.9 mm 6 mps 734 mmHg 97%
07:00 -1°C° 0.9 mm 6 mps 733 mmHg 97%
08:00 -1°C° 0.9 mm 6 mps 733 mmHg 97%
09:00 -1°C° 0.4 mm 6 mps 734 mmHg 96%
10:00 -1°C° 0.4 mm 6 mps 734 mmHg 96%
11:00 +1°C° 0.4 mm 6 mps 734 mmHg 96%
12:00 +1°C° 0.4 mm 6 mps 734 mmHg 96%
13:00 +1°C° 0.4 mm 6 mps 735 mmHg 95%
14:00 +2°C° 0.4 mm 6 mps 736 mmHg 95%
15:00 +2°C° 0.3 mm 5 mps 736 mmHg 93%
16:00 +2°C° 0.3 mm 5 mps 737 mmHg 91%
17:00 +4°C° 0.3 mm 4 mps 737 mmHg 90%
18:00 +4°C° 0 mm 3 mps 738 mmHg 89%
19:00 +3°C° 0 mm 3 mps 738 mmHg 88%
20:00 +3°C° 0 mm 3 mps 739 mmHg 87%
21:00 +3°C° 0 mm 3 mps 739 mmHg 87%
22:00 +2°C° 0 mm 3 mps 739 mmHg 87%
23:00 +2°C° 0 mm 3 mps 740 mmHg 87%

22 April, Thursday

Time Temperature Precipitation Wind Pressure Humidity
00:00 +2°C° 0 mm 3 mps 740 mmHg 88%
01:00 +2°C° 0 mm 3 mps 740 mmHg 89%
02:00 +1°C° 0 mm 3 mps 741 mmHg 90%
03:00 +1°C° 0 mm 3 mps 741 mmHg 90%
04:00 +2°C° 0 mm 2 mps 741 mmHg 90%
05:00 +2°C° 0 mm 2 mps 742 mmHg 90%
06:00 +4°C° 0 mm 2 mps 742 mmHg 87%
07:00 +6°C° 0 mm 2 mps 743 mmHg 84%
08:00 +7°C° 0 mm 2 mps 743 mmHg 81%
09:00 +9°C° 0.2 mm 3 mps 743 mmHg 75%
10:00 +10°C° 0.2 mm 3 mps 744 mmHg 69%
11:00 +12°C° 0.2 mm 3 mps 744 mmHg 64%
12:00 +12°C° 0.2 mm 4 mps 744 mmHg 61%
13:00 +13°C° 0.2 mm 4 mps 744 mmHg 58%
14:00 +14°C° 0.2 mm 4 mps 744 mmHg 55%
15:00 +13°C° 0.3 mm 4 mps 744 mmHg 59%
16:00 +13°C° 0.3 mm 3 mps 745 mmHg 62%
17:00 +13°C° 0.3 mm 3 mps 745 mmHg 66%
18:00 +11°C° 0.1 mm 3 mps 745 mmHg 70%
19:00 +10°C° 0.1 mm 3 mps 745 mmHg 75%
20:00 +9°C° 0.1 mm 3 mps 746 mmHg 79%
21:00 +9°C° 0 mm 2 mps 746 mmHg 79%
22:00 +9°C° 0 mm 2 mps 746 mmHg 80%
23:00 +9°C° 0 mm 2 mps 746 mmHg 80%

23 April, Friday

Time Temperature Precipitation Wind Pressure Humidity
00:00 +8°C° 0 mm 2 mps 746 mmHg 82%
01:00 +8°C° 0 mm 2 mps 746 mmHg 85%
02:00 +7°C° 0 mm 2 mps 746 mmHg 87%
03:00 +7°C° 0 mm 2 mps 747 mmHg 89%
04:00 +6°C° 0 mm 2 mps 747 mmHg 90%
05:00 +6°C° 0 mm 2 mps 747 mmHg 91%
06:00 +7°C° 0 mm 3 mps 747 mmHg 87%
07:00 +9°C° 0 mm 3 mps 747 mmHg 82%
08:00 +10°C° 0 mm 3 mps 747 mmHg 78%
09:00 +12°C° 0.1 mm 4 mps 747 mmHg 73%
10:00 +13°C° 0.1 mm 4 mps 748 mmHg 69%
11:00 +14°C° 0.1 mm 4 mps 748 mmHg 65%
12:00 +15°C° 0.3 mm 4 mps 748 mmHg 61%
13:00 +17°C° 0.3 mm 4 mps 748 mmHg 58%
14:00 +17°C° 0.3 mm 4 mps 748 mmHg 54%
15:00 +17°C° 0.2 mm 3 mps 748 mmHg 56%
16:00 +17°C° 0.2 mm 3 mps 748 mmHg 58%
17:00 +16°C° 0.2 mm 2 mps 748 mmHg 61%
18:00 +15°C° 0.1 mm 2 mps 748 mmHg 65%
19:00 +13°C° 0.1 mm 2 mps 749 mmHg 69%
20:00 +12°C° 0.1 mm 2 mps 749 mmHg 73%
21:00 +12°C° 0 mm 2 mps 749 mmHg 75%
22:00 +10°C° 0 mm 2 mps 750 mmHg 77%
23:00 +10°C° 0 mm 3 mps 750 mmHg 79%
Show more